Погода в Сосново

Россия / Республика Марий Эл     56°41′31″N   47°52′38″E
темп.,
°C
ветер,
м/с
пор.,
м/с
влажн.,
%
обл.,
%
осадки,
мм/ч
давл.,
гПа
погр.,
м
17 апреля, сб
сб1700:00+4всв411785 0.0 1027259
03:00+2всв310795 0.0 1028233
06:00+1всв411774 0.0 1029271
09:00+7всв69570 0.0 1029553
12:00+9всв67490 0.0 1028835
15:00+9св56540 0.0 1028865
18:00+7св47680 0.0 1027333
21:00+4всв35830 0.0 102778
18 апреля, вс
вс1800:00+3св34854 0.0 102653
03:00+2св35860 0.0 102684
06:00+3св26830 0.0 1026159
09:00+8св46575 0.0 1025634
12:00+10св675475 0.0 10261368
15:00+8св7865100 0.0 10271098
18:00+6всв5859100 0.0 10281176
21:00+3всв61255100 0.0 1029671
19 апреля, пн
пн1900:00+2всв51263100 0.0 1030563
03:00+1всв51268100 0.0 1032526
06:000всв6126387 0.0 1032578
09:00+4в71038100 0.0 10331232
12:00+7в79315 0.0 10331649
15:00+7в79290 0.0 10321675
18:00+6в59380 0.0 1033792
21:00+2в412500 0.0 1034342
20 апреля, вт
вт2000:000в412580 0.0 1034326
03:000в412550 0.0 1035337
06:00+1в512490 0.0 1035442
09:00+6вюв69360 0.0 10351073
12:00+9вюв79290 0.0 10331431
15:00+10юв79290 0.0 10311398
18:00+8юв510396 0.0 1031769
21:00+4вюв5144999 0.0 1030467
21 апреля, ср
ср2100:00+3юв61452100 0.0 1029513
03:00+3юв71751100 0.0 1028610
06:00+3юв8175098 0.0 1026702
09:00+7ююв81746100 0.0 1025879
12:00+4ююв81875100 0.9 1025870
15:00+4ююв91777100 2.5 1024940
18:00+4ююв81783100 0.9 1024856
21:00+3ююв81686100 0.9 1024776